Time,TemperatureF,DewpointF,PressureIn,WindDirection,WindDirectionDegrees,WindSpeedMPH,WindSpeedGustMPH,Humidity,HourlyPrecipIn,Conditions,Clouds,dailyrainin,SoftwareType,DateUTC
2013-03-05 00:00:00,33.0,21.4,29.89,NW,310,7.0,23.0,62,0.00,FEW,FEW,0.00,WeatherDisplay:10.31,2013-03-05 05:00:00,
2013-03-05 00:10:00,32.9,21.3,29.89,NW,321,6.0,15.0,62,0.00,FEW,FEW,0.00,WeatherDisplay:10.31,2013-03-05 05:10:00,
2013-03-05 00:20:00,32.8,21.2,29.89,NW,318,7.0,14.0,62,0.00,SCT,SCT,0.00,WeatherDisplay:10.31,2013-03-05 05:20:00,
2013-03-05 00:30:00,32.9,21.3,29.89,NW,315,10.0,17.0,62,0.00,SCT,SCT,0.00,WeatherDisplay:10.31,2013-03-05 05:30:00,
2013-03-05 00:40:00,32.9,21.7,29.90,NW,308,12.0,18.0,63,0.00,SCT,SCT,0.00,WeatherDisplay:10.31,2013-03-05 05:40:00,
2013-03-05 00:50:00,32.8,21.6,29.90,NW,316,7.0,17.0,63,0.00,SCT,SCT,0.00,WeatherDisplay:10.31,2013-03-05 05:50:00,
2013-03-05 01:00:00,32.8,21.6,29.90,NW,309,10.0,20.0,63,0.00,SCT,SCT,0.00,WeatherDisplay:10.31,2013-03-05 06:00:00,
2013-03-05 01:10:00,32.8,21.6,29.90,NW,314,8.0,20.0,63,0.00,SCT,SCT,0.00,WeatherDisplay:10.31,2013-03-05 06:10:00,
2013-03-05 01:20:00,32.7,21.5,29.91,NW,322,6.0,20.0,63,0.00,FEW,FEW,0.00,WeatherDisplay:10.31,2013-03-05 06:20:00,
2013-03-05 01:30:00,32.6,21.8,29.91,NW,314,8.0,20.0,64,0.00,FEW,FEW,0.00,WeatherDisplay:10.31,2013-03-05 06:30:00,
2013-03-05 01:40:00,32.5,21.7,29.90,NW,315,7.0,17.0,64,0.00,FEW,FEW,0.00,WeatherDisplay:10.31,2013-03-05 06:40:00,
2013-03-05 01:50:00,32.5,21.7,29.90,NW,317,8.0,17.0,64,0.00,FEW,FEW,0.00,WeatherDisplay:10.31,2013-03-05 06:50:00,
2013-03-05 02:00:00,32.5,22.0,29.90,NW,310,12.0,17.0,65,0.00,FEW,FEW,0.00,WeatherDisplay:10.31,2013-03-05 07:00:00,
2013-03-05 02:10:00,32.5,22.0,29.91,NW,310,7.0,14.0,65,0.00,FEW,FEW,0.00,WeatherDisplay:10.31,2013-03-05 07:10:00,
2013-03-05 02:20:00,32.4,21.9,29.90,NW,315,5.0,16.0,65,0.00,FEW,FEW,0.00,WeatherDisplay:10.31,2013-03-05 07:20:00,
2013-03-05 02:30:00,32.4,22.3,29.91,NW,310,10.0,16.0,66,0.00,FEW,FEW,0.00,WeatherDisplay:10.31,2013-03-05 07:30:00,
2013-03-05 02:40:00,32.4,22.3,29.90,NW,313,8.0,17.0,66,0.00,FEW,FEW,0.00,WeatherDisplay:10.31,2013-03-05 07:40:00,
2013-03-05 02:50:00,32.5,22.4,29.90,NW,321,10.0,17.0,66,0.00,FEW,FEW,0.00,WeatherDisplay:10.31,2013-03-05 07:50:00,
2013-03-05 03:00:00,32.4,22.3,29.90,NW,325,7.0,13.0,66,0.00,FEW,FEW,0.00,WeatherDisplay:10.31,2013-03-05 08:00:00,
2013-03-05 03:10:00,32.3,22.2,29.90,NW,320,8.0,14.0,66,0.00,FEW,FEW,0.00,WeatherDisplay:10.31,2013-03-05 08:10:00,
2013-03-05 03:20:00,32.3,22.2,29.90,NW,315,12.0,17.0,66,0.00,FEW,FEW,0.00,WeatherDisplay:10.31,2013-03-05 08:20:00,
2013-03-05 03:30:00,32.3,22.6,29.90,NW,315,7.0,14.0,67,0.00,FEW,FEW,0.00,WeatherDisplay:10.31,2013-03-05 08:30:00,
2013-03-05 03:40:00,32.3,22.6,29.91,NW,319,8.0,16.0,67,0.00,FEW,FEW,0.00,WeatherDisplay:10.31,2013-03-05 08:40:00,
2013-03-05 03:50:00,32.3,22.6,29.91,NNW,327,10.0,18.0,67,0.00,FEW,FEW,0.00,WeatherDisplay:10.31,2013-03-05 08:50:00,
2013-03-05 04:00:00,32.3,22.6,29.91,NW,318,5.0,17.0,67,0.00,FEW,FEW,0.00,WeatherDisplay:10.31,2013-03-05 09:00:00,
2013-03-05 04:10:00,32.2,22.4,29.92,NW,322,6.0,14.0,67,0.00,FEW,FEW,0.00,WeatherDisplay:10.31,2013-03-05 09:10:00,
2013-03-05 04:20:00,32.1,22.4,29.92,NW,323,9.0,13.0,67,0.00,FEW,FEW,0.00,WeatherDisplay:10.31,2013-03-05 09:20:00,
2013-03-05 04:30:00,32.1,22.4,29.92,NNW,328,7.0,14.0,67,0.00,CLR,CLR,0.00,WeatherDisplay:10.31,2013-03-05 09:30:00,
2013-03-05 04:40:00,32.0,22.6,29.92,NNW,328,6.0,14.0,68,0.00,CLR,CLR,0.00,WeatherDisplay:10.31,2013-03-05 09:40:00,
2013-03-05 04:50:00,32.0,22.6,29.93,NNW,332,8.0,15.0,68,0.00,CLR,CLR,0.00,WeatherDisplay:10.31,2013-03-05 09:50:00,
2013-03-05 05:00:00,31.9,22.5,29.93,NNW,329,8.0,12.0,68,0.00,CLR,CLR,0.00,WeatherDisplay:10.31,2013-03-05 10:00:00,
2013-03-05 05:10:00,31.9,22.9,29.93,NNW,328,5.0,15.0,69,0.00,CLR,CLR,0.00,WeatherDisplay:10.31,2013-03-05 10:10:00,
2013-03-05 05:20:00,31.8,22.8,29.94,NNW,331,5.0,10.0,69,0.00,CLR,CLR,0.00,WeatherDisplay:10.31,2013-03-05 10:20:00,
2013-03-05 05:30:00,31.9,22.9,29.94,NNW,329,3.0,14.0,69,0.00,CLR,CLR,0.00,WeatherDisplay:10.31,2013-03-05 10:30:00,
2013-03-05 05:40:00,31.9,22.9,29.95,NNW,330,3.0,10.0,69,0.00,CLR,CLR,0.00,WeatherDisplay:10.31,2013-03-05 10:40:00,
2013-03-05 05:50:00,31.8,22.8,29.95,NW,319,3.0,10.0,69,0.00,CLR,CLR,0.00,WeatherDisplay:10.31,2013-03-05 10:50:00,
2013-03-05 06:00:00,31.7,22.7,29.96,NW,314,5.0,12.0,69,0.00,CLR,CLR,0.00,WeatherDisplay:10.31,2013-03-05 11:00:00,
2013-03-05 06:10:00,31.6,22.6,29.96,NW,307,6.0,8.0,69,0.00,CLR,CLR,0.00,WeatherDisplay:10.31,2013-03-05 11:10:00,
2013-03-05 06:20:00,31.6,22.9,29.96,NW,306,2.0,8.0,70,0.00,FEW,FEW,0.00,WeatherDisplay:10.31,2013-03-05 11:20:00,
2013-03-05 06:30:00,31.5,22.8,29.97,NW,310,5.0,9.0,70,0.00,FEW,FEW,0.00,WeatherDisplay:10.31,2013-03-05 11:30:00,
2013-03-05 06:40:00,31.6,22.9,29.97,NW,313,3.0,8.0,70,0.00,FEW,FEW,0.00,WeatherDisplay:10.31,2013-03-05 11:40:00,
2013-03-05 06:50:00,31.7,23.1,29.97,NW,313,6.0,10.0,70,0.00,FEW,FEW,0.00,WeatherDisplay:10.31,2013-03-05 11:50:00,
2013-03-05 07:00:00,32.0,23.0,29.98,NW,315,3.0,10.0,69,0.00,FEW,FEW,0.00,WeatherDisplay:10.31,2013-03-05 12:00:00,
2013-03-05 07:10:00,32.3,23.3,29.98,NW,317,3.0,8.0,69,0.00,FEW,FEW,0.00,WeatherDisplay:10.31,2013-03-05 12:10:00,
2013-03-05 07:20:00,32.7,23.3,29.98,NW,319,5.0,12.0,68,0.00,SCT,SCT,0.00,WeatherDisplay:10.31,2013-03-05 12:20:00,
2013-03-05 07:30:00,33.1,23.7,29.99,NW,312,3.0,9.0,68,0.00,SCT,SCT,0.00,WeatherDisplay:10.31,2013-03-05 12:30:00,
2013-03-05 07:40:00,33.5,23.7,29.99,NW,314,3.0,13.0,67,0.00,SCT,SCT,0.00,WeatherDisplay:10.31,2013-03-05 12:40:00,
2013-03-05 07:50:00,33.8,23.6,29.99,NW,325,7.0,14.0,66,0.00,SCT,SCT,0.00,WeatherDisplay:10.31,2013-03-05 12:50:00,
2013-03-05 08:00:00,34.2,23.6,29.99,NNW,328,9.0,13.0,65,0.00,SCT,SCT,0.00,WeatherDisplay:10.31,2013-03-05 13:00:00,
2013-03-05 08:10:00,34.6,23.7,29.99,NW,325,7.0,12.0,64,0.00,SCT,SCT,0.00,WeatherDisplay:10.31,2013-03-05 13:10:00,
2013-03-05 08:20:00,35.0,24.1,29.99,NW,320,9.0,14.0,64,0.00,SCT,SCT,0.00,WeatherDisplay:10.31,2013-03-05 13:20:00,
2013-03-05 08:30:00,36.1,24.7,30.00,NNW,345,5.0,14.0,63,0.00,SCT,SCT,0.00,WeatherDisplay:10.31,2013-03-05 13:30:00,
2013-03-05 08:50:00,36.1,24.4,30.00,NW,317,5.0,13.0,62,0.00,SCT,SCT,0.00,WeatherDisplay:10.31,2013-03-05 13:50:00,
2013-03-05 09:00:00,37.0,24.8,30.00,NNW,328,6.0,14.0,61,0.00,SCT,SCT,0.00,WeatherDisplay:10.31,2013-03-05 14:00:00,
2013-03-05 09:10:00,36.8,24.6,29.99,NNW,333,9.0,15.0,61,0.00,SCT,SCT,0.00,WeatherDisplay:10.31,2013-03-05 14:10:00,
2013-03-05 09:20:00,37.4,24.8,30.00,NNW,345,9.0,15.0,60,0.00,SCT,SCT,0.00,WeatherDisplay:10.31,2013-03-05 14:20:00,
2013-03-05 09:30:00,38.4,25.3,29.99,NNW,337,7.0,14.0,59,0.00,SCT,SCT,0.00,WeatherDisplay:10.31,2013-03-05 14:30:00,
2013-03-05 09:40:00,38.5,25.0,29.99,NNW,335,12.0,17.0,58,0.00,SCT,SCT,0.00,WeatherDisplay:10.31,2013-03-05 14:40:00,
2013-03-05 09:50:00,38.8,25.2,29.99,NNW,339,10.0,20.0,58,0.00,SCT,SCT,0.00,WeatherDisplay:10.31,2013-03-05 14:50:00,
2013-03-05 10:00:00,38.9,25.3,29.99,NNW,334,8.0,18.0,58,0.00,SCT,SCT,0.00,WeatherDisplay:10.31,2013-03-05 15:00:00,
2013-03-05 10:10:00,39.7,25.7,29.99,NNW,330,6.0,14.0,57,0.00,SCT,SCT,0.00,WeatherDisplay:10.31,2013-03-05 15:10:00,
2013-03-05 10:20:00,40.1,25.6,29.99,NNW,335,9.0,14.0,56,0.00,SCT,SCT,0.00,WeatherDisplay:10.31,2013-03-05 15:20:00,
2013-03-05 10:30:00,40.6,26.1,29.99,NNW,331,7.0,15.0,56,0.00,SCT,SCT,0.00,WeatherDisplay:10.31,2013-03-05 15:30:00,
2013-03-05 10:40:00,41.0,26.0,29.99,NNW,334,9.0,16.0,55,0.00,SCT,SCT,0.00,WeatherDisplay:10.31,2013-03-05 15:40:00,
2013-03-05 10:50:00,41.4,26.4,29.98,NNW,330,5.0,17.0,55,0.00,SCT,SCT,0.00,WeatherDisplay:10.31,2013-03-05 15:50:00,
2013-03-05 11:00:00,42.0,26.5,29.98,NNW,332,5.0,15.0,54,0.00,SCT,SCT,0.00,WeatherDisplay:10.31,2013-03-05 16:00:00,
2013-03-05 11:10:00,42.1,26.6,29.98,NNW,336,2.0,12.0,54,0.00,FEW,FEW,0.00,WeatherDisplay:10.31,2013-03-05 16:10:00,
2013-03-05 11:20:00,43.0,26.6,29.98,NNW,333,8.0,12.0,52,0.00,FEW,FEW,0.00,WeatherDisplay:10.31,2013-03-05 16:20:00,
2013-03-05 11:30:00,42.6,26.6,29.98,NW,326,8.0,13.0,53,0.00,FEW,FEW,0.00,WeatherDisplay:10.31,2013-03-05 16:30:00,
2013-03-05 11:40:00,43.4,27.0,29.98,NNW,335,5.0,16.0,52,0.00,FEW,FEW,0.00,WeatherDisplay:10.31,2013-03-05 16:40:00,
2013-03-05 11:50:00,44.6,27.6,29.98,North,355,5.0,9.0,51,0.00,FEW,FEW,0.00,WeatherDisplay:10.31,2013-03-05 16:50:00,
2013-03-05 12:00:00,44.5,27.5,29.98,North,357,7.0,13.0,51,0.00,FEW,FEW,0.00,WeatherDisplay:10.31,2013-03-05 17:00:00,
2013-03-05 12:10:00,44.6,27.6,29.97,North,2,6.0,12.0,51,0.00,FEW,FEW,0.00,WeatherDisplay:10.31,2013-03-05 17:10:00,
2013-03-05 12:20:00,44.8,27.2,29.97,North,350,3.0,12.0,50,0.00,FEW,FEW,0.00,WeatherDisplay:10.31,2013-03-05 17:20:00,
2013-03-05 12:30:00,44.5,27.5,29.97,NNW,347,7.0,10.0,51,0.00,FEW,FEW,0.00,WeatherDisplay:10.31,2013-03-05 17:30:00,
2013-03-05 12:40:00,45.7,27.1,29.97,North,359,6.0,12.0,48,0.00,FEW,FEW,0.00,WeatherDisplay:10.31,2013-03-05 17:40:00,
2013-03-05 12:50:00,46.6,27.9,29.97,NNE,20,6.0,12.0,48,0.00,FEW,FEW,0.00,WeatherDisplay:10.31,2013-03-05 17:50:00,
2013-03-05 13:00:00,46.5,27.8,29.96,NNE,17,6.0,12.0,48,0.00,FEW,FEW,0.00,WeatherDisplay:10.31,2013-03-05 18:00:00,
2013-03-05 13:10:00,46.0,27.4,29.96,NNE,30,1.0,9.0,48,0.00,FEW,FEW,0.00,WeatherDisplay:10.31,2013-03-05 18:10:00,
2013-03-05 13:20:00,46.5,27.4,29.96,North,360,5.0,12.0,47,0.00,FEW,FEW,0.00,WeatherDisplay:10.31,2013-03-05 18:20:00,
2013-03-05 13:30:00,46.7,28.1,29.96,NNW,346,7.0,10.0,48,0.00,FEW,FEW,0.00,WeatherDisplay:10.31,2013-03-05 18:30:00,
2013-03-05 13:40:00,47.6,28.4,29.97,NNW,343,6.0,10.0,47,0.00,FEW,FEW,0.00,WeatherDisplay:10.31,2013-03-05 18:40:00,
2013-03-05 13:50:00,47.5,28.3,29.97,North,3,6.0,10.0,47,0.00,FEW,FEW,0.00,WeatherDisplay:10.31,2013-03-05 18:50:00,
2013-03-05 14:00:00,46.9,27.2,29.97,North,1,2.0,9.0,46,0.00,FEW,FEW,0.00,WeatherDisplay:10.31,2013-03-05 19:00:00,
2013-03-05 14:10:00,47.1,27.9,29.97,NW,326,5.0,10.0,47,0.00,FEW,FEW,0.00,WeatherDisplay:10.31,2013-03-05 19:10:00,
2013-03-05 14:20:00,47.4,27.6,29.97,North,355,2.0,10.0,46,0.00,SCT,SCT,0.00,WeatherDisplay:10.31,2013-03-05 19:20:00,
2013-03-05 14:30:00,47.1,27.4,29.97,North,359,2.0,10.0,46,0.00,SCT,SCT,0.00,WeatherDisplay:10.31,2013-03-05 19:30:00,
2013-03-05 14:40:00,48.1,28.2,29.97,NNW,330,3.0,8.0,46,0.00,SCT,SCT,0.00,WeatherDisplay:10.31,2013-03-05 19:40:00,
2013-03-05 14:50:00,48.3,27.9,29.96,North,356,1.0,10.0,45,0.00,SCT,SCT,0.00,WeatherDisplay:10.31,2013-03-05 19:50:00,
2013-03-05 15:00:00,47.5,27.2,29.97,North,357,3.0,10.0,45,0.00,SCT,SCT,0.00,WeatherDisplay:10.31,2013-03-05 20:00:00,
2013-03-05 15:10:00,47.8,27.5,29.97,NW,309,2.0,9.0,45,0.00,SCT,SCT,0.00,WeatherDisplay:10.31,2013-03-05 20:10:00,
2013-03-05 15:20:00,48.5,28.1,29.97,NNW,348,8.0,12.0,45,0.00,SCT,SCT,0.00,WeatherDisplay:10.31,2013-03-05 20:20:00,
2013-03-05 15:30:00,47.9,27.5,29.96,North,4,3.0,9.0,45,0.00,SCT,SCT,0.00,WeatherDisplay:10.31,2013-03-05 20:30:00,
2013-03-05 15:40:00,48.8,28.4,29.96,NNE,13,2.0,7.0,45,0.00,SCT,SCT,0.00,WeatherDisplay:10.31,2013-03-05 20:40:00,
2013-03-05 15:50:00,47.9,27.6,29.96,NNW,348,1.0,9.0,45,0.00,SCT,SCT,0.00,WeatherDisplay:10.31,2013-03-05 20:50:00,
2013-03-05 16:00:00,48.1,27.2,29.96,North,2,5.0,9.0,44,0.00,SCT,SCT,0.00,WeatherDisplay:10.31,2013-03-05 21:00:00,
2013-03-05 16:10:00,48.0,27.7,29.96,NNE,23,5.0,9.0,45,0.00,SCT,SCT,0.00,WeatherDisplay:10.31,2013-03-05 21:10:00,
2013-03-05 16:20:00,48.1,28.3,29.96,NNW,348,6.0,7.0,46,0.00,SCT,SCT,0.00,WeatherDisplay:10.31,2013-03-05 21:20:00,
2013-03-05 16:30:00,47.7,27.4,29.96,NNW,346,6.0,8.0,45,0.00,SCT,SCT,0.00,WeatherDisplay:10.31,2013-03-05 21:30:00,
2013-03-05 16:40:00,47.7,27.9,29.96,ENE,60,2.0,5.0,46,0.00,SCT,SCT,0.00,WeatherDisplay:10.31,2013-03-05 21:40:00,
2013-03-05 16:50:00,47.5,27.2,29.96,NNE,25,5.0,8.0,45,0.00,SCT,SCT,0.00,WeatherDisplay:10.31,2013-03-05 21:50:00,
2013-03-05 17:00:00,46.9,27.2,29.96,North,1,3.0,8.0,46,0.00,SCT,SCT,0.00,WeatherDisplay:10.31,2013-03-05 22:00:00,
2013-03-05 17:20:00,46.6,26.9,29.96,ENE,65,2.0,9.0,46,0.00,SCT,SCT,0.00,WeatherDisplay:10.31,2013-03-05 22:20:00,
2013-03-05 17:30:00,46.4,26.7,29.96,ENE,59,6.0,9.0,46,0.00,SCT,SCT,0.00,WeatherDisplay:10.31,2013-03-05 22:30:00,
2013-03-05 17:40:00,45.9,26.8,29.97,ENE,73,3.0,12.0,47,0.00,SCT,SCT,0.00,WeatherDisplay:10.31,2013-03-05 22:40:00,
2013-03-05 17:50:00,45.6,27.0,29.97,NE,51,2.0,6.0,48,0.00,SCT,SCT,0.00,WeatherDisplay:10.31,2013-03-05 22:50:00,
2013-03-05 18:00:00,44.7,28.2,29.98,SE,128,3.0,7.0,52,0.00,SCT,SCT,0.00,WeatherDisplay:10.31,2013-03-05 23:00:00,
2013-03-05 18:10:00,43.7,29.4,29.99,SSE,161,6.0,7.0,57,0.00,SCT,SCT,0.00,WeatherDisplay:10.31,2013-03-05 23:10:00,
2013-03-05 18:20:00,41.8,31.6,29.99,South,178,3.0,9.0,67,0.00,SCT,SCT,0.00,WeatherDisplay:10.31,2013-03-05 23:20:00,
2013-03-05 18:30:00,41.0,32.3,29.99,South,172,2.0,5.0,71,0.00,SCT,SCT,0.00,WeatherDisplay:10.31,2013-03-05 23:30:00,
2013-03-05 18:40:00,40.6,32.6,30.00,SSE,163,1.0,5.0,73,0.00,SCT,SCT,0.00,WeatherDisplay:10.31,2013-03-05 23:40:00,
2013-03-05 18:50:00,40.4,32.4,30.00,SSE,154,1.0,3.0,73,0.00,SCT,SCT,0.00,WeatherDisplay:10.31,2013-03-05 23:50:00,
2013-03-05 19:00:00,40.1,31.8,29.99,SSE,150,0.0,3.0,72,0.00,SCT,SCT,0.00,WeatherDisplay:10.31,2013-03-06 00:00:00,
2013-03-05 19:10:00,39.8,31.8,30.00,SE,135,1.0,2.0,73,0.00,SCT,SCT,0.00,WeatherDisplay:10.31,2013-03-06 00:10:00,
2013-03-05 19:20:00,39.8,31.2,30.00,SE,135,0.0,2.0,71,0.00,SCT,SCT,0.00,WeatherDisplay:10.31,2013-03-06 00:20:00,
2013-03-05 19:30:00,39.7,31.0,30.00,SE,135,0.0,1.0,71,0.00,SCT,SCT,0.00,WeatherDisplay:10.31,2013-03-06 00:30:00,
2013-03-05 19:40:00,39.0,30.7,30.00,SE,135,0.0,2.0,72,0.00,SCT,SCT,0.00,WeatherDisplay:10.31,2013-03-06 00:40:00,
2013-03-05 19:50:00,38.9,30.6,30.00,SE,135,0.0,0.0,72,0.00,SCT,SCT,0.00,WeatherDisplay:10.31,2013-03-06 00:50:00,
2013-03-05 20:00:00,38.7,30.4,30.00,SE,135,0.0,1.0,72,0.00,SCT,SCT,0.00,WeatherDisplay:10.31,2013-03-06 01:00:00,
2013-03-05 20:10:00,38.6,30.4,29.99,SE,135,0.0,1.0,72,0.00,SCT,SCT,0.00,WeatherDisplay:10.31,2013-03-06 01:10:00,
2013-03-05 20:20:00,38.3,30.1,29.99,SE,135,0.0,2.0,72,0.00,SCT,SCT,0.00,WeatherDisplay:10.31,2013-03-06 01:20:00,
2013-03-05 20:30:00,38.2,30.3,29.99,SE,135,0.0,0.0,73,0.00,SCT,SCT,0.00,WeatherDisplay:10.31,2013-03-06 01:30:00,
2013-03-05 20:40:00,37.6,30.1,29.99,SE,135,0.0,2.0,74,0.00,SCT,SCT,0.00,WeatherDisplay:10.31,2013-03-06 01:40:00,
2013-03-05 20:50:00,37.6,30.1,29.99,SE,135,0.0,2.0,74,0.00,SCT,SCT,0.00,WeatherDisplay:10.31,2013-03-06 01:50:00,
2013-03-05 21:00:00,37.5,30.3,30.00,SE,135,0.0,0.0,75,0.00,SCT,SCT,0.00,WeatherDisplay:10.31,2013-03-06 02:00:00,
2013-03-05 21:10:00,37.3,30.4,30.00,SE,135,1.0,2.0,76,0.00,SCT,SCT,0.00,WeatherDisplay:10.31,2013-03-06 02:10:00,
2013-03-05 21:20:00,37.4,30.5,30.00,SE,135,0.0,2.0,76,0.00,SCT,SCT,0.00,WeatherDisplay:10.31,2013-03-06 02:20:00,
2013-03-05 21:30:00,37.7,30.8,30.00,SE,135,1.0,2.0,76,0.00,SCT,SCT,0.00,WeatherDisplay:10.31,2013-03-06 02:30:00,
2013-03-05 21:40:00,38.2,30.6,30.00,SE,135,1.0,3.0,74,0.00,SCT,SCT,0.00,WeatherDisplay:10.31,2013-03-06 02:40:00,
2013-03-05 21:50:00,38.8,31.2,30.00,SSE,158,2.0,3.0,74,0.00,SCT,SCT,0.00,WeatherDisplay:10.31,2013-03-06 02:50:00,
2013-03-05 22:00:00,39.0,31.4,30.00,SSE,149,1.0,3.0,74,0.00,SCT,SCT,0.00,WeatherDisplay:10.31,2013-03-06 03:00:00,
2013-03-05 22:10:00,39.1,31.8,30.00,SE,124,2.0,3.0,75,0.00,BKN,BKN,0.00,WeatherDisplay:10.31,2013-03-06 03:10:00,
2013-03-05 22:20:00,39.3,32.4,30.00,SE,133,1.0,5.0,76,0.00,BKN,BKN,0.00,WeatherDisplay:10.31,2013-03-06 03:20:00,
2013-03-05 22:30:00,39.4,33.1,30.00,ESE,120,2.0,5.0,78,0.00,BKN,BKN,0.00,WeatherDisplay:10.31,2013-03-06 03:30:00,
2013-03-05 22:40:00,39.4,33.1,30.00,ESE,113,2.0,5.0,78,0.00,BKN,BKN,0.00,WeatherDisplay:10.31,2013-03-06 03:40:00,
2013-03-05 22:50:00,39.5,33.2,29.99,SE,134,0.0,3.0,78,0.00,BKN,BKN,0.00,WeatherDisplay:10.31,2013-03-06 03:50:00,
2013-03-05 23:00:00,39.5,33.5,29.99,SE,143,2.0,5.0,79,0.00,BKN,BKN,0.00,WeatherDisplay:10.31,2013-03-06 04:00:00,
2013-03-05 23:10:00,39.5,33.8,29.99,ESE,102,1.0,5.0,80,0.00,BKN,BKN,0.00,WeatherDisplay:10.31,2013-03-06 04:10:00,
2013-03-05 23:20:00,39.5,33.8,29.99,ESE,102,2.0,5.0,80,0.00,BKN,BKN,0.00,WeatherDisplay:10.31,2013-03-06 04:20:00,
2013-03-05 23:30:00,39.5,34.2,29.99,East,97,2.0,7.0,81,0.00,BKN,BKN,0.00,WeatherDisplay:10.31,2013-03-06 04:30:00,
2013-03-05 23:40:00,39.5,34.2,29.98,East,97,1.0,6.0,81,0.00,BKN,BKN,0.00,WeatherDisplay:10.31,2013-03-06 04:40:00,
2013-03-05 23:50:00,39.5,34.1,29.98,East,92,5.0,7.0,81,0.00,BKN,BKN,0.00,WeatherDisplay:10.31,2013-03-06 04:50:00,